FW9406 Weather Reports


Display with metric or nautical units.
time (UTC)temp
F
wind
direction
speed
MPH
gust
MPH
rain 1hr
in
rain 24hr
in
rain mn
in
humidity
%
barometer
mb
20260507150051 72 236 6.0 8.0 0.00 1.46 1.46 96 1013.5
20260507145545 72 258 6.0 9.0 0.00 1.46 1.46 96 1013.5
20260507145044 72 280 5.0 8.0 0.00 1.46 1.46 96 1013.5
20260507144540 72 237 4.0 4.0 0.00 1.46 1.46 96 1013.2
20260507144038 72 215 4.0 8.0 0.00 1.46 1.46 96 1013.2
20260507143535 72 269 1.0 9.0 0.00 1.46 1.46 97 1013.2
20260507143032 72 131 1.0 6.0 0.00 1.46 1.46 97 1012.8
20260507142527 72 259 4.0 8.0 0.00 1.46 1.46 97 1012.8
20260507142025 72 240 4.0 13.0 0.00 1.46 1.46 97 1013.2
20260507141520 71 227 3.0 8.0 0.00 1.46 1.46 98 1012.8
20260507141017 71 285 8.0 11.0 0.00 1.46 1.46 99 1012.8
20260507140514 70 288 5.0 7.0 0.00 1.46 1.46 99 1013.2
20260507140012 70 253 7.0 10.0 0.00 1.46 1.46 99 1012.8
20260507135508 70 263 4.0 8.0 0.00 1.46 1.46 99 1012.8
20260507135006 70 89 1.0 13.0 0.00 1.46 1.46 99 1012.8
20260507134502 69 198 4.0 7.0 0.00 1.46 1.46 99 1012.5
20260507133958 69 286 1.0 7.0 0.00 1.46 1.46 99 1012.5
20260507133454 69 172 0.0 6.0 0.00 1.46 1.46 99 1012.8
20260507132953 69 245 2.0 7.0 0.00 1.46 1.46 99 1012.8
20260507132448 69 206 1.0 6.0 0.00 1.46 1.46 99 1013.2
20260507131945 69 125 3.0 9.0 0.00 1.46 1.46 99 1012.8
20260507131442 69 134 2.0 4.0 0.00 1.46 1.46 99 1013.2
20260507130939 69 247 6.0 10.0 0.00 1.46 1.46 99 1012.8
20260507130436 69 249 3.0 4.0 0.00 1.46 1.46 99 1012.8
20260507125935 69 136 2.0 4.0 0.00 1.46 1.46 99 1012.8
20260507125433 68 133 5.0 8.0 0.00 1.46 1.46 99 1012.5
20260507124930 68 334 1.0 2.0 0.00 1.46 1.46 99 1012.5
20260507124426 68 247 3.0 6.0 0.00 1.46 1.46 99 1012.8
20260507123924 68 195 1.0 3.0 0.00 1.46 1.46 99 1012.8
20260507123421 68 141 3.0 4.0 0.00 1.46 1.46 99 1012.8
20260507122918 68 249 1.0 4.0 0.00 1.46 1.46 99 1012.8
20260507122413 68 194 2.0 3.0 0.00 1.46 1.46 99 1013.2
20260507121909 68 164 2.0 4.0 0.00 1.46 1.46 99 1012.8
20260507121404 67 220 0.0 1.0 0.00 1.46 1.46 99 1013.2
20260507120901 68 203 0.0 0.0 0.00 1.46 1.46 99 1013.2
20260507120358 68 220 1.0 2.0 0.00 1.46 1.46 99 1013.2
20260507115854 67 198 0.0 0.0 0.00 1.46 1.46 99 1013.5
20260507115350 67 238 0.0 0.0 0.00 1.46 1.46 99 1013.9
20260507114846 67 216 0.0 0.0 0.00 1.46 1.46 99 1013.9
20260507114343 67 219 0.0 0.0 0.00 1.46 1.46 99 1013.9
20260507113840 67 173 1.0 6.0 0.00 1.46 1.46 99 1013.5
20260507113337 67 209 0.0 1.0 0.00 1.46 1.46 99 1013.5
20260507112835 67 190 1.0 2.0 0.00 1.46 1.46 99 1013.5
20260507112332 67 139 1.0 2.0 0.00 1.46 1.46 99 1013.2
20260507111830 67 175 1.0 3.0 0.00 1.46 1.46 99 1013.5
20260507111326 67 184 1.0 1.0 0.00 1.46 1.46 99 1013.2
20260507110822 67 199 1.0 1.0 0.00 1.46 1.46 99 1012.8
20260507110319 67 156 1.0 4.0 0.00 1.46 1.46 99 1012.5
20260507105816 67 190 2.0 3.0 0.00 1.46 1.46 99 1013.2
20260507105312 67 218 0.0 1.0 0.00 1.46 1.46 99 1013.5
20260507104809 67 204 1.0 1.0 0.00 1.46 1.46 99 1013.5
20260507104305 67 218 0.0 1.0 0.00 1.46 1.46 99 1013.2
20260507103802 67 189 1.0 4.0 0.00 1.46 1.46 99 1013.5
20260507103258 67 249 1.0 1.0 0.00 1.46 1.46 99 1012.8
20260507102754 67 122 2.0 7.0 0.00 1.46 1.46 99 1013.2
20260507102251 67 235 0.0 3.0 0.00 1.46 1.46 99 1013.2
20260507101747 67 211 1.0 3.0 0.00 1.46 1.46 99 1013.2
20260507101242 67 152 3.0 3.0 0.00 1.46 1.46 99 1012.8
20260507100740 67 176 2.0 3.0 0.00 1.46 1.46 99 1012.5
20260507100238 67 101 2.0 4.0 0.00 1.46 1.46 99 1012.2
20260507095736 67 200 2.0 3.0 0.00 1.46 1.46 99 1012.5
20260507095232 67 145 2.0 4.0 0.00 1.46 1.46 99 1012.8
20260507094729 67 109 3.0 6.0 0.00 1.46 1.46 99 1013.2
20260507094226 67 168 3.0 7.0 0.00 1.46 1.46 99 1013.2
20260507093723 67 158 3.0 6.0 0.07 1.46 1.46 99 1013.9
20260507093221 67 124 5.0 7.0 0.00 1.46 1.46 99 1013.9
20260507092719 67 125 3.0 4.0 0.00 1.45 1.45 99 1013.9
20260507092215 67 199 0.0 3.0 0.00 1.45 1.45 99 1014.2
20260507091711 67 137 2.0 6.0 0.00 1.45 1.45 99 1013.9
20260507091208 67 97 2.0 7.0 0.00 1.45 1.45 99 1014.2
20260507090703 67 228 2.0 3.0 0.05 1.45 1.45 99 1014.2
20260507090200 67 120 6.0 9.0 0.05 1.45 1.45 99 1014.2
20260507085657 67 184 4.0 10.0 0.07 1.44 1.44 99 1014.2
20260507085154 67 114 4.0 9.0 0.07 1.44 1.44 99 1014.2
20260507084651 67 126 4.0 9.0 0.05 1.43 1.43 99 1013.9
20260507084147 67 146 5.0 9.0 0.05 1.43 1.43 99 1014.2
20260507083644 67 177 3.0 8.0 0.00 1.42 1.42 99 1014.2
20260507083141 66 100 6.0 8.0 0.00 1.42 1.42 99 1013.9
20260507082637 66 153 3.0 8.0 0.00 1.42 1.42 99 1013.9
20260507082134 66 128 4.0 6.0 0.00 1.42 1.42 99 1013.9
20260507081630 67 171 3.0 3.0 0.00 1.42 1.42 99 1013.9
20260507081126 67 144 2.0 3.0 0.00 1.42 1.42 99 1013.9
20260507080623 67 146 3.0 7.0 0.12 1.42 1.42 99 1013.9
20260507080120 67 199 4.0 7.0 0.19 1.42 1.42 99 1013.5
20260507075619 67 125 4.0 8.0 0.12 1.41 1.41 99 1014.2
20260507075116 67 126 4.0 4.0 0.17 1.39 1.39 99 1014.5
20260507074613 66 114 3.0 3.0 0.12 1.37 1.37 99 1014.2
20260507074112 67 140 2.0 3.0 0.31 1.36 1.36 99 1014.5
20260507073607 67 100 2.0 3.0 1.37 1.35 1.35 99 1014.9
20260507073103 67 134 2.0 3.0 1.32 1.30 1.30 99 1016.6
20260507072602 67 245 2.0 6.0 0.31 1.11 1.11 99 1017.6
20260507072058 67 297 2.0 6.0 1.02 1.07 1.07 99 1015.6
20260507071556 67 290 2.0 2.0 1.56 1.03 1.03 99 1015.6
20260507071052 67 87 1.0 2.0 1.32 0.91 0.91 99 1015.2
20260507070549 67 118 5.0 6.0 1.02 0.75 0.75 99 1014.9
20260507070046 67 268 2.0 7.0 1.87 0.67 0.67 99 1015.9
20260507065542 67 318 8.0 11.0 1.13 0.54 0.54 99 1015.2
20260507065040 67 303 11.0 13.0 0.17 0.35 0.35 99 1015.6
20260507064538 68 340 5.0 9.0 0.12 0.33 0.33 99 1014.2
20260507064036 68 333 2.0 14.0 0.07 0.31 0.31 99 1014.2
20260507063533 68 317 3.0 6.0 0.00 0.30 0.30 99 1013.9
20260507063030 68 255 0.0 1.0 0.05 0.30 0.30 99 1013.9
20260507062527 68 298 2.0 3.0 0.05 0.30 0.30 99 1013.9
20260507062024 68 286 0.0 0.0 0.07 0.29 0.29 99 1013.9
20260507061522 68 174 0.0 1.0 0.07 0.29 0.29 99 1013.2
20260507061020 68 105 1.0 2.0 0.05 0.28 0.28 99 1014.2
20260507060517 68 163 1.0 3.0 0.05 0.28 0.28 99 1014.2
20260507060014 68 110 2.0 3.0 0.07 0.27 0.27 99 1014.5
20260507055514 68 125 1.0 2.0 0.07 0.27 0.27 99 1014.5
20260507055011 68 209 0.0 1.0 0.05 0.26 0.26 99 1014.5
20260507054507 68 219 0.0 1.0 0.05 0.26 0.26 99 1014.5
20260507054004 68 104 0.0 2.0 0.07 0.25 0.25 99 1014.9
20260507053502 68 344 1.0 2.0 0.14 0.25 0.25 99 1014.9
20260507053000 68 352 1.0 1.0 0.07 0.24 0.24 99 1015.2
20260507052458 68 296 0.0 1.0 0.05 0.23 0.23 99 1015.2
20260507051954 68 185 1.0 2.0 0.07 0.22 0.22 99 1015.6
20260507051452 68 51 0.0 7.0 0.12 0.22 0.22 99 1015.9
20260507050948 68 335 5.0 8.0 0.12 0.21 0.21 99 1016.6
20260507050445 69 331 6.0 7.0 0.07 0.20 0.20 99 1016.6
20260507045942 69 323 4.0 6.0 0.00 0.19 0.19 99 1016.2
20260507045438 69 271 3.0 4.0 0.05 0.19 0.19 99 1015.9
20260507044936 69 285 2.0 2.0 0.05 0.19 0.19 99 1015.9
20260507044432 69 238 0.0 3.0 0.00 0.18 0.18 99 1015.2
20260507043928 69 233 1.0 1.0 0.07 0.18 0.18 99 1015.2
20260507043425 69 208 0.0 1.0 0.31 0.18 0.18 99 1015.2
20260507042921 69 267 0.0 1.0 0.66 0.17 0.17 99 1015.6
20260507042418 69 230 3.0 3.0 0.61 0.12 0.12 99 1015.6
20260507041914 69 228 3.0 6.0 0.19 0.06 0.06 99 1016.6
20260507041411 69 250 1.0 3.0 0.05 0.02 0.02 99 1016.6
20260507040908 69 243 1.0 1.0 0.17 0.02 0.02 99 1016.2
20260507040404 69 224 0.0 0.0 0.12 0.01 0.01 99 1015.9
20260507035900 69 224 0.0 1.0 0.14 0.21 0.21 99 1016.6
20260507035356 69 255 0.0 1.0 0.24 0.20 0.20 99 1016.6
20260507034853 69 239 1.0 2.0 0.28 0.19 0.19 99 1016.6
20260507034350 69 275 1.0 2.0 0.19 0.17 0.17 98 1016.6
20260507033848 69 258 1.0 2.0 0.19 0.14 0.14 98 1016.2
20260507033346 69 270 2.0 2.0 0.17 0.13 0.13 98 1016.9
20260507032842 70 307 2.0 3.0 0.17 0.11 0.11 97 1016.6
20260507032339 70 236 2.0 2.0 0.19 0.10 0.10 97 1016.2
20260507031835 70 247 1.0 2.0 0.14 0.08 0.08 96 1016.2
20260507031332 71 240 2.0 3.0 0.12 0.07 0.07 95 1016.2
20260507030829 71 233 1.0 2.0 0.12 0.06 0.06 94 1016.2
20260507030326 71 256 2.0 2.0 0.07 0.05 0.05 93 1016.2
20260507025823 71 288 2.0 2.0 0.05 0.04 0.04 92 1015.6
20260507025320 71 251 1.0 1.0 0.05 0.04 0.04 91 1015.6
20260507024818 72 245 1.0 2.0 0.07 0.03 0.03 90 1015.2
20260507024315 72 242 1.0 1.0 0.07 0.03 0.03 89 1014.9
20260507023811 72 234 1.0 2.0 0.05 0.02 0.02 89 1014.9
20260507023307 71 301 1.0 2.0 0.05 0.02 0.02 90 1014.5
20260507022805 71 263 0.0 1.0 0.00 0.01 0.01 90 1014.5
20260507022301 71 195 0.0 1.0 0.00 0.01 0.01 91 1014.5
20260507021757 72 203 0.0 1.0 0.00 0.01 0.01 91 1014.5
20260507021253 72 193 0.0 1.0 0.00 0.01 0.01 90 1014.5
20260507020751 73 195 1.0 1.0 0.00 0.01 0.01 85 1014.5
20260507020248 74 234 0.0 0.0 0.00 0.01 0.01 83 1014.5
20260507015745 74 271 1.0 1.0 0.00 0.01 0.01 82 1014.5
20260507015242 73 275 2.0 3.0 0.00 0.01 0.01 83 1014.9
20260507014739 73 250 2.0 3.0 0.00 0.01 0.01 85 1014.9
20260507014236 72 253 0.0 1.0 0.00 0.01 0.01 87 1014.5
20260507013732 73 196 0.0 0.0 0.07 0.01 0.01 89 1014.2
20260507013230 73 223 0.0 0.0 0.07 0.01 0.01 89 1014.5
20260507012727 73 238 0.0 0.0 0.00 0.00 0.00 87 1014.5
20260507012222 73 235 0.0 0.0 0.00 0.00 0.00 86 1014.2
20260507011720 74 198 0.0 0.0 0.00 0.00 0.00 84 1014.2
20260507011216 75 207 0.0 0.0 0.00 0.00 0.00 77 1014.5
20260507010716 76 233 0.0 1.0 0.00 0.00 0.00 75 1014.9
20260507010212 77 254 0.0 1.0 0.00 0.00 0.00 73 1014.9
20260507005710 77 250 1.0 1.0 0.00 0.00 0.00 72 1014.9
20260507005206 77 251 1.0 1.0 0.00 0.00 0.00 70 1014.9
20260507004703 78 218 0.0 1.0 0.00 0.00 0.00 67 1014.5
20260507004200 78 207 0.0 1.0 0.00 0.00 0.00 66 1014.9
20260507003657 78 181 0.0 1.0 0.00 0.00 0.00 65 1014.5
20260507003157 78 243 0.0 0.0 0.00 0.00 0.00 66 1014.9
20260507002653 78 239 0.0 1.0 0.00 0.00 0.00 65 1014.5
20260507002149 79 242 0.0 2.0 0.00 0.00 0.00 65 1014.5
20260507001646 79 147 2.0 3.0 0.00 0.00 0.00 64 1014.5
20260507001144 79 191 0.0 1.0 0.00 0.00 0.00 65 1014.5
20260507000640 78 228 0.0 1.0 0.00 0.00 0.00 65 1014.5
20260507000135 79 183 0.0 0.0 0.00 0.00 0.00 66 1014.5
20260506235633 79 198 0.0 2.0 0.00 0.00 0.00 65 1014.5
20260506235133 79 196 0.0 1.0 0.00 0.00 0.00 64 1014.5
20260506234631 79 228 0.0 1.0 0.00 0.00 0.00 64 1014.5
20260506234128 80 154 0.0 2.0 0.00 0.00 0.00 64 1014.5
20260506233625 80 241 2.0 2.0 0.00 0.00 0.00 63 1014.2
20260506233122 80 190 0.0 1.0 0.00 0.00 0.00 62 1014.5
20260506232618 80 190 0.0 4.0 0.00 0.00 0.00 62 1014.2
20260506232113 81 107 2.0 3.0 0.00 0.00 0.00 61 1014.2
20260506231611 81 139 2.0 4.0 0.00 0.00 0.00 60 1014.5
20260506231109 81 221 0.0 1.0 0.00 0.00 0.00 59 1014.9
20260506230605 82 225 0.0 2.0 0.00 0.00 0.00 59 1015.2
20260506225559 82 228 0.0 2.0 0.00 0.00 0.00 58 1014.9
20260506225055 82 290 1.0 3.0 0.00 0.00 0.00 58 1014.9
20260506224552 82 253 3.0 6.0 0.00 0.00 0.00 57 1014.5
20260506224049 82 149 1.0 4.0 0.00 0.00 0.00 57 1014.5
20260506223545 83 162 2.0 3.0 0.00 0.00 0.00 57 1014.9
20260506223041 83 192 5.0 6.0 0.00 0.00 0.00 57 1014.9
20260506222538 83 262 1.0 6.0 0.00 0.00 0.00 58 1014.5
20260506222035 84 165 0.0 6.0 0.00 0.00 0.00 58 1014.2
20260506221532 84 190 1.0 6.0 0.00 0.00 0.00 56 1014.5
20260506221030 84 191 2.0 6.0 0.00 0.00 0.00 56 1014.5
20260506220526 84 230 0.0 6.0 0.00 0.00 0.00 57 1014.5
20260506220021 84 235 1.0 3.0 0.00 0.00 0.00 56 1014.5
20260506215519 84 133 2.0 6.0 0.00 0.00 0.00 56 1014.5
20260506215014 84 245 9.0 11.0 0.00 0.00 0.00 54 1014.5
20260506214512 84 209 0.0 2.0 0.00 0.00 0.00 55 1014.5
20260506214009 84 251 0.0 8.0 0.00 0.00 0.00 55 1014.5
20260506213507 85 182 3.0 4.0 0.00 0.00 0.00 54 1014.5
20260506213004 85 219 3.0 3.0 0.00 0.00 0.00 54 1014.5
20260506212500 86 268 4.0 8.0 0.00 0.00 0.00 52 1014.9
20260506211954 86 223 2.0 6.0 0.00 0.00 0.00 52 1014.5
20260506211450 87 248 4.0 7.0 0.00 0.00 0.00 50 1014.9
20260506210948 87 280 2.0 7.0 0.00 0.00 0.00 51 1015.2
20260506210444 87 235 2.0 7.0 0.00 0.00 0.00 51 1015.2
20260506205942 87 216 4.0 7.0 0.00 0.00 0.00 50 1015.2
20260506205438 86 272 2.0 6.0 0.00 0.00 0.00 51 1015.2
20260506204934 86 270 2.0 3.0 0.00 0.00 0.00 52 1015.6
20260506204432 87 238 8.0 9.0 0.00 0.00 0.00 50 1015.6
20260506203929 88 248 4.0 7.0 0.00 0.00 0.00 49 1015.6
20260506203426 86 160 2.0 10.0 0.00 0.00 0.00 51 1015.6
20260506202923 87 196 2.0 8.0 0.00 0.00 0.00 50 1015.6
20260506202420 86 230 0.0 3.0 0.00 0.00 0.00 50 1015.9
20260506201916 86 239 3.0 7.0 0.00 0.00 0.00 49 1015.9
20260506201414 85 241 7.0 9.0 0.00 0.00 0.00 48 1016.2
20260506200910 85 267 3.0 7.0 0.00 0.00 0.00 48 1016.2
20260506200406 86 251 9.0 11.0 0.00 0.00 0.00 46 1016.2
20260506195903 86 251 6.0 8.0 0.00 0.00 0.00 47 1016.2
20260506195401 85 300 2.0 10.0 0.00 0.00 0.00 48 1016.2
20260506194857 85 249 6.0 9.0 0.00 0.00 0.00 46 1016.6
20260506194354 86 231 7.0 10.0 0.00 0.00 0.00 45 1016.6
20260506193851 86 291 2.0 9.0 0.00 0.00 0.00 47 1016.6
20260506193348 87 248 2.0 9.0 0.00 0.00 0.00 46 1016.6
20260506192844 86 237 2.0 4.0 0.00 0.00 0.00 45 1016.6
20260506192341 86 286 6.0 10.0 0.00 0.00 0.00 46 1016.6
20260506191838 87 236 4.0 8.0 0.00 0.00 0.00 45 1016.6
20260506191335 86 125 3.0 4.0 0.00 0.00 0.00 49 1016.2
20260506190832 87 260 4.0 8.0 0.00 0.00 0.00 46 1016.6
20260506190328 87 217 6.0 9.0 0.00 0.00 0.00 45 1016.6
20260506185825 86 250 2.0 3.0 0.00 0.00 0.00 44 1016.6
20260506185322 87 164 5.0 10.0 0.00 0.00 0.00 45 1016.6
20260506184819 86 255 2.0 7.0 0.00 0.00 0.00 49 1016.6
20260506184316 86 23 5.0 8.0 0.00 0.00 0.00 47 1016.6
20260506183813 86 257 3.0 6.0 0.00 0.00 0.00 46 1016.9
20260506183308 86 183 1.0 7.0 0.00 0.00 0.00 47 1016.9
20260506182806 86 234 6.0 10.0 0.00 0.00 0.00 45 1017.2
20260506182306 86 236 4.0 6.0 0.00 0.00 0.00 46 1016.9
20260506181800 85 247 4.0 7.0 0.00 0.00 0.00 49 1016.9
20260506181258 85 241 4.0 10.0 0.00 0.00 0.00 50 1017.2
20260506180755 85 253 3.0 7.0 0.00 0.00 0.00 50 1017.2
20260506180251 84 2 10.0 11.0 0.00 0.00 0.00 50 1016.9
20260506175747 86 264 5.0 8.0 0.00 0.00 0.00 48 1017.2
20260506175244 85 320 4.0 7.0 0.00 0.00 0.00 50 1017.2
20260506174742 84 243 6.0 10.0 0.00 0.00 0.00 50 1017.2
20260506174239 85 240 5.0 7.0 0.00 0.00 0.00 48 1017.2
20260506173737 84 165 1.0 6.0 0.00 0.00 0.00 51 1017.6
20260506173233 84 132 9.0 13.0 0.00 0.00 0.00 50 1017.2
20260506172730 84 212 3.0 4.0 0.00 0.00 0.00 52 1017.2
20260506172226 83 243 4.0 7.0 0.00 0.00 0.00 52 1017.9
20260506171724 83 230 3.0 4.0 0.00 0.00 0.00 52 1017.6
20260506171221 82 266 4.0 7.0 0.00 0.00 0.00 52 1017.6
20260506170719 82 261 4.0 7.0 0.00 0.00 0.00 51 1017.9
20260506170215 82 271 7.0 8.0 0.00 0.00 0.00 52 1017.9
20260506165714 82 288 2.0 10.0 0.00 0.00 0.00 53 1017.9
20260506165210 83 297 6.0 11.0 0.00 0.00 0.00 50 1017.9
20260506164708 83 114 2.0 6.0 0.00 0.00 0.00 54 1018.3
20260506164205 81 295 6.0 8.0 0.00 0.00 0.00 55 1017.9
20260506163701 82 226 5.0 8.0 0.00 0.00 0.00 53 1017.9
20260506163156 81 255 3.0 7.0 0.00 0.00 0.00 56 1018.3
20260506162652 81 238 1.0 4.0 0.00 0.00 0.00 56 1018.3
20260506162150 80 262 4.0 8.0 0.00 0.00 0.00 55 1018.3
20260506161647 78 236 2.0 8.0 0.00 0.00 0.00 60 1018.3
20260506161144 79 251 2.0 8.0 0.00 0.00 0.00 62 1018.6
20260506160642 80 334 2.0 7.0 0.00 0.00 0.00 62 1018.3
20260506160138 80 254 8.0 10.0 0.00 0.00 0.00 60 1018.6
20260506155637 79 281 3.0 10.0 0.00 0.00 0.00 59 1018.6
20260506155134 79 304 6.0 10.0 0.00 0.00 0.00 59 1018.6
20260506153236 80 278 6.0 8.0 0.00 0.00 0.00 62 1018.6
20260506152733 78 249 4.0 9.0 0.00 0.00 0.00 65 1018.6
20260506152230 78 258 3.0 9.0 0.00 0.00 0.00 69 1018.6
20260506151729 77 313 4.0 9.0 0.00 0.00 0.00 69 1018.9
20260506151225 77 259 3.0 7.0 0.00 0.00 0.00 71 1018.6
20260506150721 77 233 2.0 4.0 0.00 0.00 0.00 70 1018.6
20260506150219 77 141 2.0 4.0 0.00 0.00 0.00 72 1018.6